Erie, PA

8:29 AM EST on December 06, 2019 (GMT -0500)
Erie International

Weather History for KERI - October, 2019

Change the Weather History Date:

Thursday, October 10, 2019

  Actual Average Record
Temperature  
Mean Temperature 60 °F 55 °F  
Max Temperature 71 °F 63 °F 88 °F (1949)
Min Temperature 50 °F 47 °F 29 °F (1972)
Degree Days  
Heating Degree Days 4 11  
Month to date heating degree days 50 92  
Since 1 July heating degree days 62 216  
Cooling Degree Days 0 0  
Month to date cooling degree days 20 7  
Year to date cooling degree days 845 636  
Growing Degree Days 10 (Base 50)    
Moisture  
Dew Point 44 °F    
Average Humidity 62    
Maximum Humidity 83    
Minimum Humidity 35    
Precipitation  
Precipitation 0.00 in 0.14 in 1.56 in (1979)
Month to date precipitation 0.57 1.45  
Year to date precipitation 30.20 31.89  
Snow  
Snow 0.00 in 0.00 in - ()
Month to date snowfall 0.0 0.0  
Since 1 July snowfall 0.0 0.0  
Since 1 September snowfall 0.0 0.0  
Snow Depth 0.00 in    
Sea Level Pressure  
Sea Level Pressure 30.23 in    
Wind  
Wind Speed 10 mph ()    
Max Wind Speed 17 mph    
Max Gust Speed 22 mph    
Visibility 10.0 miles    
Events      
T = Trace of Precipitation, MM = Missing Value Source: Averaged Metar Reports

Daily Weather History Graph

Daily Weather History Graph

Search for Another Location

Airport or City:

Astronomy

Oct. 10, 2019 Rise Set
Actual Time 7:27 AM EDT 6:47 PM EDT
Civil Twilight 6:59 AM EDT 7:15 PM EDT
Nautical Twilight 6:26 AM EDT 7:47 PM EDT
Astronomical Twilight 5:54 AM EDT 8:20 PM EDT
Moon 5:52 PM EDT (10/10) 4:04 AM EDT (10/10)
Length of Visible Light 12h 16m
Length of Day
11h 20m
Waxing Gibbous, 91% of the Moon is Illuminated
Oct 10
Waxing Gibbous
Oct 13
Full
Oct 21
Last Quarter
Oct 27
New
Nov 4
First Quarter

Hourly Weather History & Observations

Time (EDT) Temp. Dew Point Humidity Pressure Visibility Wind Dir Wind Speed Gust Speed Precip Events Conditions
12:51 AM 50.0 °F 41.0 °F 71% 30.25 in 10.0 mi SSE 8.1 mph - N/A   Clear
1:51 AM 53.1 °F 39.0 °F 59% 30.23 in 10.0 mi SE 15.0 mph - N/A   Clear
2:51 AM 53.1 °F 39.9 °F 61% 30.23 in 10.0 mi SSE 13.8 mph - N/A   Clear
3:51 AM 53.1 °F 41.0 °F 64% 30.23 in 10.0 mi SE 13.8 mph - N/A   Clear
4:51 AM 52.0 °F 39.9 °F 63% 30.25 in 10.0 mi SSE 13.8 mph - N/A   Clear
5:51 AM 52.0 °F 39.9 °F 63% 30.26 in 10.0 mi SSE 11.5 mph - N/A   Clear
6:51 AM 51.1 °F 39.9 °F 66% 30.27 in 10.0 mi SE 12.7 mph - N/A   Clear
7:51 AM 51.1 °F 39.9 °F 66% 30.28 in 10.0 mi SSE 12.7 mph - N/A   Clear
8:51 AM 54.0 °F 41.0 °F 62% 30.29 in 10.0 mi SSE 11.5 mph - N/A   Clear
9:51 AM 57.0 °F 41.0 °F 55% 30.29 in 10.0 mi SE 16.1 mph - N/A   Clear
11:51 AM 64.9 °F 42.1 °F 43% 30.27 in 10.0 mi Variable 4.6 mph - N/A   Clear
12:51 PM 68.0 °F 41.0 °F 37% 30.26 in 10.0 mi East 8.1 mph - N/A   Clear
1:51 PM 70.0 °F 41.0 °F 35% 30.23 in 10.0 mi NE 10.4 mph - N/A   Clear
2:51 PM 66.0 °F 48.9 °F 54% 30.22 in 10.0 mi NNE 13.8 mph - N/A   Clear
3:51 PM 64.9 °F 50.0 °F 58% 30.21 in 10.0 mi NE 12.7 mph - N/A   Clear
4:51 PM 64.0 °F 48.9 °F 58% 30.21 in 10.0 mi NE 9.2 mph - N/A   Clear
5:51 PM 64.0 °F 50.0 °F 60% 30.20 in 10.0 mi NE 11.5 mph - N/A   Clear
6:51 PM 59.0 °F 50.0 °F 72% 30.19 in 10.0 mi ENE 9.2 mph - N/A   Clear
7:51 PM 57.0 °F 48.0 °F 72% 30.18 in 10.0 mi ENE 8.1 mph - N/A   Clear
8:51 PM 55.9 °F 48.9 °F 77% 30.19 in 10.0 mi Calm Calm - N/A   Clear
9:51 PM 53.1 °F 48.0 °F 83% 30.19 in 10.0 mi Calm Calm - N/A   Clear
10:51 PM 55.0 °F 45.0 °F 69% 30.19 in 10.0 mi South 6.9 mph - N/A   Clear
11:51 PM 55.9 °F 45.0 °F 67% 30.18 in 10.0 mi SSE 9.2 mph - N/A   Clear